Regional Weather Roundup
Issued by NWS

Home | Current Version | Previous Version | Text Only | Print | Product List | Glossary Off
Versions: 1 2 3 4 5 6 7 8 9 10 11 12 13 14 15 16 17 18 19 20 21 22 23 24 25 26 27 28 29 30 31 32 33 34 35 36 37 38 39 40 41 42 43 44 45 46 47 48 49 50

000
ASUS43 KFSD 191410
RWRSD

WEATHER ROUNDUP FOR SOUTH DAKOTA
NATIONAL WEATHER SERVICE SIOUX FALLS SD
900 AM CDT SAT APR 19 2014

NOTE: "FAIR" INDICATES FEW OR NO CLOUDS BELOW 12,000 FEET WITH NO
SIGNIFICANT WEATHER AND/OR OBSTRUCTIONS TO VISIBILITY.


SDZ001>005-009-010-012>017-191500-
NORTHWEST AND NORTH CENTRAL SOUTH DAKOTA

CITY           SKY/WX    TMP DP  RH WIND       PRES   REMARKS
BUFFALO          N/A     43  24  47 SW12      29.91R
FAITH            N/A     46  27  47 W15       29.98R
MOBRIDGE       MOSUNNY   48  32  53 NW12      29.92R
$$

SDZ012>016-024>037-041>051-057-063-072>074-191500-
SOUTHWEST AND SOUTH CENTRAL SOUTH DAKOTA

CITY           SKY/WX    TMP DP  RH WIND       PRES   REMARKS
RAPID CTY ARPT MOSUNNY   50  16  25 W7        30.02R
PIERRE         PTSUNNY   48  33  56 W9        29.97R
CUSTER         MOSUNNY   44  20  38 N5        30.03R
ELLSWORTH AFB  MOSUNNY   49  19  30 NW7       30.02R
PHILIP         MOSUNNY   47  33  58 W12       30.00R
PINE RIDGE     CLOUDY    46  32  58 NE6       30.04R
SPEARFISH      FAIR      46  16  29 W12       30.03S
WINNER         FAIR      51  37  58 NW10      30.00R
$$

SDZ004>011-016>023-039-040-191500-
NORTHEAST SOUTH DAKOTA

CITY           SKY/WX    TMP DP  RH WIND       PRES   REMARKS
ABERDEEN       CLOUDY    49  38  65 W8        29.93R
WATERTOWN      CLOUDY    51  43  74 S7        29.90R
SISSETON         N/A     54  42  64 NW10      29.86R
$$

SDZ017-020-022-023-036>040-048>070-191500-
SOUTHEAST SOUTH DAKOTA

CITY           SKY/WX    TMP DP  RH WIND       PRES   REMARKS
SIOUX FALLS    CLOUDY    57  41  55 S20       29.96R
HURON          CLOUDY    52  40  63 W7        29.95R
CHAMBERLAIN      N/A     50  37  61 W7        29.99R
MITCHELL       CLOUDY    55  42  61 NW10      29.95R
YANKTON        MOSUNNY   57  43  58 S18       29.97S
$$

ABBREVIATIONS USED IN REMARKS
   TC - TEMPERATURE IN CELSIUS
  WCI - WIND CHILL INDEX
   HX - HEAT INDEX
  VSB - VISIBILITY




USA.gov is the U.S. government's official web portal to all federal, state and local government web resources and services.